TimeEST,TemperatureF,Dew PointF,Humidity,Sea Level PressureIn,VisibilityMPH,Wind Direction,Wind SpeedMPH,Gust SpeedMPH,PrecipitationIn,Events,Conditions,WindDirDegrees,DateUTC
12:06 AM,21.7,12.4,67,30.52,10.0,ENE,3.5,-,N/A,,Clear,60,2014-02-12 05:06:00
12:26 AM,20.3,12.4,71,30.51,10.0,NE,4.6,-,N/A,,Clear,40,2014-02-12 05:26:00
12:46 AM,20.7,11.8,69,30.51,10.0,NE,4.6,-,N/A,,Clear,40,2014-02-12 05:46:00
1:06 AM,19.8,11.1,69,30.51,10.0,NE,3.5,-,N/A,,Clear,50,2014-02-12 06:06:00
1:26 AM,21.0,11.5,67,30.51,10.0,NE,6.9,-,N/A,,Clear,50,2014-02-12 06:26:00
1:46 AM,20.8,11.3,67,30.52,10.0,NE,8.1,-,N/A,,Clear,50,2014-02-12 06:46:00
2:06 AM,20.5,10.6,66,30.52,10.0,ENE,8.1,-,N/A,,Clear,60,2014-02-12 07:06:00
2:26 AM,19.6,10.2,67,30.53,10.0,ENE,6.9,-,N/A,,Clear,60,2014-02-12 07:26:00
2:46 AM,19.0,9.7,67,30.54,10.0,ENE,4.6,-,N/A,,Clear,70,2014-02-12 07:46:00
3:06 AM,18.3,9.9,70,30.53,10.0,ENE,5.8,-,N/A,,Clear,60,2014-02-12 08:06:00
3:26 AM,17.4,10.2,73,30.54,10.0,ENE,5.8,-,N/A,,Clear,60,2014-02-12 08:26:00
3:46 AM,16.9,9.9,74,30.54,10.0,NE,6.9,-,N/A,,Clear,50,2014-02-12 08:46:00
4:06 AM,18.5,10.4,71,30.54,10.0,NE,5.8,-,N/A,,Clear,40,2014-02-12 09:06:00
4:26 AM,18.7,9.7,68,30.55,10.0,NE,5.8,-,N/A,,Clear,40,2014-02-12 09:26:00
4:46 AM,17.8,9.9,71,30.55,10.0,NE,5.8,-,N/A,,Clear,50,2014-02-12 09:46:00
5:06 AM,17.4,9.7,72,30.55,10.0,NE,5.8,-,N/A,,Clear,50,2014-02-12 10:06:00
5:23 AM,16.7,9.3,73,30.54,10.0,ENE,6.9,-,N/A,,Clear,60,2014-02-12 10:23:00
5:53 AM,17.6,8.6,68,30.55,10.0,NNE,5.8,-,N/A,,Scattered Clouds,30,2014-02-12 10:53:00
6:50 AM,17.6,8.6,68,30.56,10.0,Calm,Calm,-,N/A,,Mostly Cloudy,0,2014-02-12 11:50:00
7:53 AM,17.6,10.4,73,30.56,10.0,NNE,3.5,-,N/A,,Mostly Cloudy,20,2014-02-12 12:53:00
8:53 AM,19.4,10.4,68,30.56,10.0,NE,9.2,-,N/A,,Mostly Cloudy,50,2014-02-12 13:53:00
9:53 AM,24.8,12.2,59,30.55,10.0,ENE,5.8,-,N/A,,Mostly Cloudy,60,2014-02-12 14:53:00
10:50 AM,26.6,15.8,64,30.55,10.0,East,6.9,-,N/A,,Mostly Cloudy,80,2014-02-12 15:50:00
11:55 AM,30.2,17.6,60,30.54,10.0,East,6.9,-,N/A,,Mostly Cloudy,90,2014-02-12 16:55:00
12:50 PM,30.2,17.6,60,30.49,10.0,East,10.4,-,N/A,,Mostly Cloudy,90,2014-02-12 17:50:00
1:55 PM,30.2,19.4,64,30.47,10.0,East,10.4,-,N/A,,Overcast,100,2014-02-12 18:55:00
2:55 PM,30.2,19.4,64,30.46,10.0,East,8.1,-,N/A,,Mostly Cloudy,80,2014-02-12 19:55:00
3:48 PM,30.2,19.4,64,30.42,10.0,East,10.4,-,N/A,,Scattered Clouds,80,2014-02-12 20:48:00
4:47 PM,30.2,21.2,69,30.39,10.0,ENE,11.5,-,N/A,,Scattered Clouds,60,2014-02-12 21:47:00
5:50 PM,30.2,21.2,69,30.37,10.0,ENE,8.1,-,N/A,,Mostly Cloudy,70,2014-02-12 22:50:00
6:47 PM,30.2,23.0,75,30.36,10.0,East,6.9,-,N/A,,Overcast,80,2014-02-12 23:47:00
7:50 PM,30.2,24.8,80,30.33,4.0,ENE,11.5,18.4,N/A,Snow,Light Snow,70,2014-02-13 00:50:00
8:45 PM,30.2,26.6,86,30.30,4.0,ENE,11.5,-,N/A,Snow,Light Snow,60,2014-02-13 01:45:00
9:27 PM,29.7,28.2,94,30.27,4.0,ENE,11.5,-,N/A,Snow,Light Snow,60,2014-02-13 02:27:00
9:48 PM,29.7,29.3,99,30.26,3.0,ENE,12.7,16.1,N/A,Snow,Light Snow,60,2014-02-13 02:48:00
10:08 PM,29.8,29.8,100,30.24,5.0,ENE,11.5,-,N/A,Snow,Light Snow,60,2014-02-13 03:08:00
10:28 PM,29.8,29.8,100,30.23,7.0,ENE,11.5,-,N/A,Snow,Light Snow,70,2014-02-13 03:28:00
10:49 PM,30.2,30.2,100,30.21,3.0,ENE,12.7,-,N/A,Snow,Light Snow,60,2014-02-13 03:49:00
11:09 PM,30.2,30.2,100,30.19,4.0,ENE,12.7,-,N/A,Snow,Light Snow,60,2014-02-13 04:09:00
11:29 PM,30.2,30.2,100,30.18,3.0,ENE,11.5,-,N/A,Snow,Light Snow,60,2014-02-13 04:29:00
11:49 PM,30.2,30.2,100,30.17,2.5,ENE,15.0,19.6,N/A,Snow,Light Snow,70,2014-02-13 04:49:00